sat.trackr.live / text

‹ back to catalog

GEESAT-6 02

NORAD 65714 · 2025-214C

PAYLOAD ACTIVE UNKNOWN

§ Identity

Operator
Country
PRC
Launch date
2025-09-24
Launch site
YSLA
Launch vehicle
Mass (kg)
RCS (m²)

External: N2YO · Heavens-Above · Gunter

§ Orbital elements

Epoch: 2026-09-20T21:47:43.224288Z

Period
97.06 min
Inclination
49.9838°
Eccentricity
0.0009933
Mean motion
14.83618151 rev/d
Perigee alt
611.0 km
Apogee alt
624.9 km
Semi-major
6,996.1 km
B*
1.4989e-4
RAAN
224.8960°
Arg perigee
224.2545°
Mean anomaly
135.7599°
Rev number
5,371

§ Raw data

GEESAT-6 021 65714U 25214C   26263.90813917  .00001023  00000+0  14989-3 0  99932 65714  49.9838 224.8960 0009933 224.2545 135.7599 14.83618151 53718

JSON: /api/v1/satellites/65714 · /tle

For live sub-satellite position, see the globe view (requires WebGL).

§ Visibility from observer

Set your observer location to see the next 7 days of passes ≥ 10°. The values pass through the URL so the page stays shareable.

No JS? Fill the form by hand. The geolocation button needs JavaScript.